Home   Weather   Kawartha Lakes   Past weeks
Flag for Canada

Past Weather in Kawartha Lakes, Ontario, Canada — Yesterday and Last 2 Weeks

Now
46 °F

Cool.


Feels Like: 43 °F
Forecast: 50 / 42 °F
Wind: 5 mph from North

Location: Lagoon City

Current Time: Oct 17, 2019 at 2:05:19 am

Latest Report: Oct 17, 2019 at 1:00 am


Visibility: N/A

Pressure: N/A

Humidity: 92%

Dew Point: 44 °F

Location of Kawartha LakesLocation

Past Weather in Kawartha Lakes — Graph

°F

Kawartha Lakes Temperature Yesterday

Maximum temperature yesterday: 52 °F (at 2:00 pm)
Minimum temperature yesterday: 47 °F (at 7:00 am)
Average temperature yesterday: 49 °F

High & Low Weather Summary for the Past Weeks

 TemperatureHumidityPressure
High68 °F (Oct 11, 3:00 pm)100% (Oct 2, 8:00 am)30.41 "Hg (Oct 2, 8:00 am)
Low35 °F (Oct 5, 4:00 am)18% (Oct 11, 5:00 pm)29.41 "Hg (Oct 17, 12:00 am)
Average51 °F70%30.03 "Hg
* Reported Oct 2 12:00 am — Oct 17 12:00 am, Kawartha Lakes. Weather by CustomWeather, © 2019

Note: Actual official high and low records may vary slightly from our data, if they occured in-between our weather recording intervals... More about our weather records

Advertising

Kawartha Lakes Weather History for the Previous 24 Hours

Scroll right to see more
 ConditionsComfort  
Time TempWeatherWind HumidityBarometerVisibility
12:00 am
Thu, Oct 17
46 °FCool.5 mph87%29.41 "HgN/A
11:00 pm
Wed, Oct 16
48 °FCool.5 mph84%29.41 "HgN/A
10:00 pm49 °FCool.9 mph78%29.42 "HgN/A
9:00 pm49 °FCool.12 mph77%29.42 "HgN/A
8:00 pm50 °FCool.10 mph74%29.43 "HgN/A
7:00 pm50 °FCool.9 mph80%29.43 "HgN/A
6:00 pm50 °FCool.7 mph78%29.43 "HgN/A
5:00 pm51 °FCool.12 mph78%29.44 "HgN/A
4:00 pm50 °FCool.17 mph86%29.44 "HgN/A
3:00 pm51 °FCool.22 mph81%29.45 "HgN/A
2:00 pm52 °FCool.18 mph88%29.46 "HgN/A
1:00 pm50 °FCool.5 mph94%29.45 "HgN/A
12:00 pm50 °FCool.6 mph94%29.48 "HgN/A
11:00 am49 °FCool.6 mph96%29.48 "HgN/A
10:00 am49 °FCool.3 mph94%29.49 "HgN/A
9:00 am48 °FCool.8 mph95%29.48 "HgN/A
8:00 am48 °FCool.9 mph94%29.50 "HgN/A
7:00 am47 °FCool.9 mph94%29.54 "HgN/A
6:00 am48 °FCool.10 mph87%29.57 "HgN/A
5:00 am49 °FCool.18 mph76%29.57 "HgN/A
4:00 am49 °FCool.17 mph72%29.61 "HgN/A
3:00 am50 °FCool.16 mph69%29.67 "HgN/A
2:00 am49 °FCool.15 mph64%29.71 "HgN/A
Weather by CustomWeather, © 2019

See weather overview